DMSP 5D-2 F11 DEB, 28317

Orbit data source: Space-Track

DMSP 5D-2 F11 DEB, 28317 is space debris in SSO originally from a launch on Thu, 28 Nov 1991 UTC launched from the Air Force Western Test Range (AFWTR). Debris objects in space refer to the collection of defunct objects orbiting the Earth. Examples of debris include non-operational satellites, rocket bodies, and fragments generated from explosions, collisions, or faulty payload assembly.

Loading next visibility...
Identifier
28317, 1991-082AE
Orbit
SSO
Country
Flag of USUS
Related business
Manufacturer
Unknown
Mission
Spacecraft
Bus & Motor
Unknown
Mass
Unknown
Launch date (UTC)
1991-11-28 (34 years ago)
Launch vehicle
Unknown
Launch site
Air Force Western Test Range (AFWTR)
Object type
Payload
Rocket body
Debris
Shape & HBR
Unknown shape, 0.1 m
Radar Cross Section
Small (<0.1 m²)

Expand to show TLE details & history
Last TLE update: 2 days ago

TLE from 2 days ago
0 DMSP 5D-2 F11 DEB
1 28317U 91082AE  25349.02894027  .00001031  00000-0  47020-3 0  9997
2 28317  98.8712   2.8393 0119572  98.9233 288.8593 14.20004167117076
Epoch: 2025-12-15T00:41Z
TLE epoch observation values (Epoch: 2025-12-15T00:41:40.439Z)
Latitude
26.17418°
Longitude
-95.88886°
Altitude
801.591 km
Speed
7.469 km/s
True Right ascension
23h 53m 51s
True Declination
26° 02' 21"
Sunlit
Object was in daylight at epoch
Visualization orbit readout
Latitude
Unknown
Longitude
Unknown
Altitude
Unknown
Speed
Unknown
Apparent Right ascension
Unknown
Apparent Declination
Unknown
Sunlit
N/A
Visualization observer readout
Local Sidereal Time
12:53:39
Azimuth
Unknown
Elevation
Unknown
Doppler factor
Unknown
Orbital elements
Apogee altitude
908.604 km
Perigee altitude
736.405 km
Semi-major axis
7,200.641 km
Eccentricity
0.01196
Inclination
98.8712°
RAAN
2.8393°
Arg. of periapsis
98.9233°
True anomaly
287.55648°
Mean anomaly
288.8593°
Eccentric anomaly
288.20851°
Mean motion
3.55211 °/min
Orbital period
101.35 mins
BSTAR
0.0004702
Loading maneuver chart data...
Computing Atmospheric mass density...

Documentation

Showing up to 5 results
|